KC3FDL Weather Reports


time (UTC)temp
C
wind
direction
speed
KPH
gust
KPH
rain 1hr
cm
rain 24hr
cm
rain mn
cm
humidity
%
barometer
mb
20260505122017 16 271 1.6 12.9 0.00 0.00 0.00 63 1012.1
20260505121117 16 268 3.2 12.9 0.00 0.00 0.00 64 1011.9
20260505120017 15 273 3.2 12.9 0.00 0.00 0.00 65 1011.8
20260505115017 15 264 3.2 12.9 0.00 0.00 0.00 67 1011.7
20260505114037 15 256 4.8 12.9 0.00 0.00 0.00 67 1011.7
20260505113038 15 275 3.2 12.9 0.00 0.00 0.00 69 1011.7
20260505112037 14 279 1.6 8.0 0.00 0.00 0.00 69 1011.6
20260505111037 14 268 1.6 8.0 0.00 0.00 0.00 69 1011.4
20260505102037 14 256 1.6 6.4 0.00 0.00 0.00 69 1010.9
20260505101057 14 279 3.2 11.3 0.00 0.00 0.00 69 1010.9
20260505100137 14 267 1.6 11.3 0.00 0.00 0.00 68 1010.9
20260505095017 14 295 3.2 11.3 0.00 0.00 0.00 68 1010.8
20260505094057 14 293 3.2 12.9 0.00 0.00 0.00 68 1010.8
20260505093037 14 299 4.8 12.9 0.00 0.00 0.00 68 1010.8
20260505092017 14 277 3.2 9.7 0.00 0.00 0.00 68 1010.7
20260505091037 14 281 1.6 9.7 0.00 0.00 0.00 69 1010.6
20260505090057 14 270 3.2 11.3 0.00 0.00 0.00 69 1010.7
20260505085037 14 271 3.2 11.3 0.00 0.00 0.00 70 1010.7
20260505084017 14 257 1.6 6.4 0.00 0.00 0.00 69 1010.7
20260505083017 14 271 1.6 4.8 0.00 0.00 0.00 69 1010.6
20260505082037 15 275 1.6 4.8 0.00 0.00 0.00 68 1010.7
20260505081137 15 269 0.0 3.2 0.00 0.00 0.00 68 1010.6
20260505080117 15 275 0.0 4.8 0.00 0.00 0.00 67 1010.6
20260505075117 15 276 1.6 4.8 0.00 0.00 0.00 67 1010.5
20260505074137 15 305 1.6 4.8 0.00 0.00 0.00 67 1010.5
20260505073057 15 305 1.6 4.8 0.00 0.00 0.00 66 1010.4
20260505072057 15 300 1.6 6.4 0.00 0.00 0.00 66 1010.5
20260505071117 15 297 1.6 6.4 0.00 0.00 0.00 65 1010.5
20260505070017 15 290 1.6 4.8 0.00 0.00 0.00 65 1010.5
20260505065037 16 270 1.6 6.4 0.00 0.00 0.00 64 1010.5
20260505064036 16 295 1.6 6.4 0.00 0.00 0.00 64 1010.6
20260505063016 16 300 3.2 11.3 0.00 0.00 0.00 63 1010.6
20260505062036 16 298 3.2 11.3 0.00 0.00 0.00 62 1010.7
20260505061036 16 301 3.2 9.7 0.00 0.00 0.00 62 1010.6
20260505060137 16 301 3.2 11.3 0.00 0.00 0.00 61 1010.7
20260505055016 17 295 4.8 11.3 0.00 0.00 0.00 61 1010.7
20260505054036 17 298 3.2 9.7 0.00 0.00 0.00 60 1010.8
20260505053036 17 307 3.2 9.7 0.00 0.00 0.00 60 1010.8
20260505052016 17 300 3.2 9.7 0.00 0.00 0.00 59 1010.8
20260505051016 17 297 3.2 12.9 0.00 0.00 0.00 59 1010.7
20260505041036 16 298 3.2 12.9 0.00 0.00 0.00 59 1010.4
20260505040016 16 303 3.2 12.9 0.00 0.00 0.00 59 1010.4
20260505035116 16 302 3.2 6.4 0.00 0.00 0.00 59 1010.3
20260505034016 16 290 1.6 6.4 0.00 0.00 0.00 59 1010.3
20260505033037 16 290 1.6 4.8 0.00 0.00 0.00 58 1010.3
20260505032016 16 290 0.0 3.2 0.00 0.00 0.00 56 1010.4
20260505031016 16 0.0 0.0 0.00 0.00 0.00 54 1010.4
20260505030016 16 0.0 1.6 0.00 0.00 0.00 53 1010.4
20260505025016 17 283 0.0 1.6 0.00 0.00 0.00 53 1010.5
20260505024016 17 0.0 0.0 0.00 0.00 0.00 51 1010.5
20260505023016 17 0.0 0.0 0.00 0.00 0.00 50 1010.5
20260505022036 17 0.0 0.0 0.00 0.00 0.00 50 1010.4
20260505021116 18 0.0 0.0 0.00 0.00 0.00 49 1010.4
20260505020056 18 283 0.0 3.2 0.00 0.00 0.00 49 1010.4
20260505015036 18 288 0.0 4.8 0.00 0.00 0.00 49 1010.4
20260505014016 18 294 1.6 4.8 0.00 0.00 0.00 48 1010.3
20260505013016 18 250 0.0 3.2 0.00 0.00 0.00 47 1010.1
20260505012137 18 263 0.0 3.2 0.00 0.00 0.00 47 1010.0
20260505011036 18 284 0.0 4.8 0.00 0.00 0.00 46 1009.9
20260505010116 19 214 0.0 4.8 0.00 0.00 0.00 46 1009.8
20260505005016 19 259 0.0 4.8 0.00 0.00 0.00 45 1009.8
20260505004036 20 241 1.6 6.4 0.00 0.00 0.00 44 1009.7
20260505003016 20 248 1.6 6.4 0.00 0.00 0.00 43 1009.7
20260505002016 20 246 1.6 6.4 0.00 0.00 0.00 43 1009.6
20260505001016 20 251 1.6 12.9 0.00 0.00 0.00 42 1009.6
20260505000016 21 253 1.6 12.9 0.00 0.00 0.00 41 1009.5
20260504235016 21 228 1.6 11.3 0.00 0.00 0.00 40 1009.4
20260504234016 21 247 1.6 14.5 0.00 0.00 0.00 39 1009.4
20260504233016 22 231 3.2 14.5 0.00 0.00 0.00 38 1009.3
20260504232036 22 226 3.2 9.7 0.00 0.00 0.00 37 1009.3
20260504231016 22 222 3.2 16.1 0.00 0.00 0.00 37 1009.3
20260504225056 22 244 3.2 19.3 0.00 0.00 0.00 36 1009.3
20260504224136 23 241 4.8 19.3 0.00 0.00 0.00 35 1009.3
20260504223056 23 255 6.4 17.7 0.00 0.00 0.00 35 1009.3
20260504222016 23 249 4.8 16.1 0.00 0.00 0.00 35 1009.3
20260504221017 23 248 3.2 14.5 0.00 0.00 0.00 35 1009.3
20260504220016 23 241 3.2 17.7 0.00 0.00 0.00 35 1009.3
20260504215016 23 264 6.4 19.3 0.00 0.00 0.00 34 1009.4
20260504214056 23 256 6.4 19.3 0.00 0.00 0.00 34 1009.4
20260504213016 24 252 4.8 16.1 0.00 0.00 0.00 34 1009.4
20260504212016 24 279 6.4 16.1 0.00 0.00 0.00 34 1009.4
20260504211056 24 274 4.8 17.7 0.00 0.00 0.00 34 1009.5
20260504210016 24 273 6.4 20.9 0.00 0.00 0.00 34 1009.5
20260504205016 24 283 6.4 20.9 0.00 0.00 0.00 34 1009.5
20260504204116 24 272 4.8 17.7 0.00 0.00 0.00 35 1009.5
20260504203016 23 283 4.8 29.0 0.00 0.00 0.00 35 1009.6
20260504202038 23 279 8.0 29.0 0.00 0.00 0.00 35 1009.8
20260504201037 23 281 8.0 20.9 0.00 0.00 0.00 34 1009.8
20260504200036 23 289 8.0 19.3 0.00 0.00 0.00 34 1010.0
20260504195157 23 281 6.4 17.7 0.00 0.00 0.00 35 1010.2
20260504194036 23 278 6.4 19.3 0.00 0.00 0.00 35 1010.5
20260504193056 23 246 4.8 19.3 0.00 0.00 0.00 35 1010.7
20260504192016 23 282 6.4 19.3 0.00 0.00 0.00 35 1010.8
20260504191056 23 275 6.4 16.1 0.00 0.00 0.00 35 1011.0
20260504185036 22 276 6.4 24.1 0.00 0.00 0.00 36 1011.3
20260504184015 22 271 8.0 24.1 0.00 0.00 0.00 36 1011.3
20260504183036 22 271 8.0 22.5 0.00 0.00 0.00 36 1011.5
20260504182056 22 265 6.4 20.9 0.00 0.00 0.00 36 1011.6
20260504181015 22 270 6.4 20.9 0.00 0.00 0.00 36 1011.7
20260504180056 21 254 4.8 20.9 0.00 0.00 0.00 36 1011.7
20260504175016 21 293 8.0 22.5 0.00 0.00 0.00 36 1011.8
20260504174035 21 266 8.0 22.5 0.00 0.00 0.00 36 1011.9
20260504173115 21 244 3.2 17.7 0.00 0.00 0.00 36 1011.9
20260504172055 21 242 4.8 17.7 0.00 0.00 0.00 36 1012.2
20260504171015 21 301 3.2 19.3 0.00 0.00 0.00 38 1012.3
20260504151037 18 297 8.0 19.3 0.00 0.00 0.00 40 1013.8
20260504141018 16 239 4.8 16.1 0.00 0.00 0.00 45 1014.0